Time,TemperatureF,DewpointF,PressureIn,WindDirection,WindDirectionDegrees,WindSpeedMPH,WindSpeedGustMPH,Humidity,HourlyPrecipIn,Conditions,Clouds,dailyrainin,SoftwareType,DateUTC
2013-01-08 00:00:00,18.3,14.3,30.25,SE,135,1.0,18.0,84,0.00,,---,0.00,VWS V14.01,2013-01-08 05:00:00,
2013-01-08 00:30:00,20.4,16.6,30.23,SSE,158,0.0,2.0,85,0.00,,---,0.00,VWS V14.01,2013-01-08 05:30:00,
2013-01-08 01:00:00,22.5,18.4,30.22,SSE,158,0.0,3.0,84,0.00,,---,0.00,VWS V14.01,2013-01-08 06:00:00,
2013-01-08 01:30:00,22.9,18.2,30.22,SE,135,1.0,5.0,82,0.00,,---,0.00,VWS V14.01,2013-01-08 06:30:00,
2013-01-08 02:00:00,21.1,17.3,30.21,SE,135,0.0,2.0,85,0.00,,---,0.00,VWS V14.01,2013-01-08 07:00:00,
2013-01-08 02:30:00,17.8,15.1,30.20,SE,135,0.0,2.0,89,0.00,,---,0.00,VWS V14.01,2013-01-08 07:30:00,
2013-01-08 03:00:00,19.9,17.2,30.19,SE,135,2.0,10.0,89,0.00,,---,0.00,VWS V14.01,2013-01-08 08:00:00,
2013-01-08 03:30:00,25.4,21.2,30.17,ESE,112,3.0,8.0,84,0.00,,---,0.00,VWS V14.01,2013-01-08 08:30:00,
2013-01-08 04:00:00,28.1,23.3,30.16,ESE,112,3.0,9.0,82,0.00,,---,0.00,VWS V14.01,2013-01-08 09:00:00,
2013-01-08 04:30:00,31.1,26.0,30.15,ESE,112,6.0,15.0,81,0.00,,---,0.00,VWS V14.01,2013-01-08 09:30:00,
2013-01-08 05:00:00,35.0,28.2,30.13,ESE,112,10.0,30.0,76,0.00,,---,0.00,VWS V14.01,2013-01-08 10:00:00,
2013-01-08 05:30:00,36.6,28.4,30.11,ESE,112,12.0,26.0,72,0.00,,---,0.00,VWS V14.01,2013-01-08 10:30:00,
2013-01-08 06:00:00,37.0,27.8,30.12,ESE,112,13.0,32.0,69,0.00,,---,0.00,VWS V14.01,2013-01-08 11:00:00,
2013-01-08 06:30:00,37.0,27.8,30.12,ESE,112,15.0,35.0,69,0.00,,---,0.00,VWS V14.01,2013-01-08 11:30:00,
2013-01-08 07:00:00,36.6,28.1,30.13,ESE,112,14.0,29.0,71,0.00,,---,0.00,VWS V14.01,2013-01-08 12:00:00,
2013-01-08 07:30:00,36.1,28.6,30.12,ESE,112,10.0,23.0,74,0.00,,---,0.00,VWS V14.01,2013-01-08 12:30:00,
2013-01-08 08:00:00,36.3,29.1,30.12,ESE,112,11.0,23.0,75,0.00,,---,0.00,VWS V14.01,2013-01-08 13:00:00,
2013-01-08 08:30:00,36.3,29.5,30.13,SE,135,9.0,22.0,76,0.00,,---,0.00,VWS V14.01,2013-01-08 13:30:00,
2013-01-08 09:00:00,36.2,28.4,30.13,SE,135,10.0,24.0,73,0.00,,---,0.00,VWS V14.01,2013-01-08 14:00:00,
2013-01-08 09:30:00,36.2,28.1,30.14,SE,135,9.0,19.0,72,0.00,,---,0.00,VWS V14.01,2013-01-08 14:30:00,
2013-01-08 10:00:00,36.6,27.8,30.14,SE,135,12.0,21.0,70,0.00,,---,0.00,VWS V14.01,2013-01-08 15:00:00,
2013-01-08 10:30:00,37.1,27.2,30.13,SE,135,10.0,23.0,67,0.00,,---,0.00,VWS V14.01,2013-01-08 15:30:00,
2013-01-08 11:00:00,37.0,26.7,30.11,SE,135,9.0,17.0,66,0.00,,---,0.00,VWS V14.01,2013-01-08 16:00:00,
2013-01-08 11:30:00,37.0,25.6,30.10,SE,135,7.0,16.0,63,0.00,,---,0.00,VWS V14.01,2013-01-08 16:30:00,
2013-01-08 12:00:00,37.6,25.0,30.09,SE,135,7.0,14.0,60,0.00,,---,0.00,VWS V14.01,2013-01-08 17:00:00,
2013-01-08 12:30:00,37.3,25.1,30.08,SE,135,9.0,18.0,61,0.00,,---,0.00,VWS V14.01,2013-01-08 17:30:00,
2013-01-08 13:30:00,36.7,24.5,30.10,SE,130,7.0,10.0,61,0.00,,---,0.00,VWS V14.01,2013-01-08 18:30:00,
2013-01-08 13:32:00,37.3,25.1,30.08,SE,135,9.0,18.0,61,0.00,,---,0.00,VWS V14.01,2013-01-08 18:32:00,
2013-01-08 13:37:00,36.7,24.5,30.09,SE,143,7.0,9.0,61,0.00,,---,0.00,VWS V14.01,2013-01-08 18:37:00,
2013-01-08 13:42:00,36.6,24.4,30.10,SE,140,7.0,10.0,61,0.00,,---,0.00,VWS V14.01,2013-01-08 18:42:00,
2013-01-08 13:47:00,36.8,24.2,30.10,SE,140,6.0,10.0,60,0.00,,---,0.00,VWS V14.01,2013-01-08 18:47:00,
2013-01-08 13:52:00,36.9,24.3,30.10,SSE,148,4.0,10.0,60,0.00,,---,0.00,VWS V14.01,2013-01-08 18:52:00,
2013-01-08 13:57:00,37.0,24.4,30.10,SSE,148,4.0,10.0,60,0.00,,---,0.00,VWS V14.01,2013-01-08 18:57:00,
2013-01-08 14:00:00,37.2,24.6,30.11,SSE,149,3.0,10.0,60,0.00,,---,0.00,VWS V14.01,2013-01-08 19:00:00,
2013-01-08 14:02:00,37.1,24.1,30.11,SSE,155,4.0,10.0,59,0.00,,---,0.00,VWS V14.01,2013-01-08 19:02:00,
2013-01-08 14:07:00,37.3,24.7,30.11,SE,140,6.0,6.0,60,0.00,,---,0.00,VWS V14.01,2013-01-08 19:07:00,
2013-01-08 14:12:00,37.4,24.4,30.11,SE,146,2.0,7.0,59,0.00,,---,0.00,VWS V14.01,2013-01-08 19:12:00,
2013-01-08 14:17:00,37.4,24.0,30.11,SE,139,9.0,9.0,58,0.00,,---,0.00,VWS V14.01,2013-01-08 19:17:00,
2013-01-08 14:22:00,37.5,24.5,30.11,SSE,152,3.0,9.0,59,0.00,,---,0.00,VWS V14.01,2013-01-08 19:22:00,
2013-01-08 14:27:00,37.7,23.9,30.10,SSE,150,2.0,9.0,57,0.00,,---,0.00,VWS V14.01,2013-01-08 19:27:00,
2013-01-08 14:30:00,37.7,24.7,30.11,SE,143,4.0,9.0,59,0.00,,---,0.00,VWS V14.01,2013-01-08 19:30:00,
2013-01-08 14:32:00,37.8,24.8,30.10,SE,145,4.0,9.0,59,0.00,,---,0.00,VWS V14.01,2013-01-08 19:32:00,
2013-01-08 14:37:00,37.6,24.6,30.11,SE,146,3.0,4.0,59,0.00,,---,0.00,VWS V14.01,2013-01-08 19:37:00,
2013-01-08 14:42:00,37.4,24.0,30.11,SE,144,4.0,9.0,58,0.00,,---,0.00,VWS V14.01,2013-01-08 19:42:00,
2013-01-08 14:47:00,37.4,24.0,30.11,SE,144,3.0,9.0,58,0.00,,---,0.00,VWS V14.01,2013-01-08 19:47:00,
2013-01-08 14:52:00,37.4,23.6,30.11,SSE,153,2.0,9.0,57,0.00,,---,0.00,VWS V14.01,2013-01-08 19:52:00,
2013-01-08 14:57:00,37.2,23.8,30.11,SE,144,3.0,9.0,58,0.00,,---,0.00,VWS V14.01,2013-01-08 19:57:00,
2013-01-08 15:00:00,37.0,24.0,30.12,SSE,161,2.0,9.0,59,0.00,,---,0.00,VWS V14.01,2013-01-08 20:00:00,
2013-01-08 15:02:00,37.1,23.7,30.12,SSE,161,3.0,9.0,58,0.00,,---,0.00,VWS V14.01,2013-01-08 20:02:00,
2013-01-08 15:07:00,36.9,23.9,30.12,SSE,161,1.0,3.0,59,0.00,,---,0.00,VWS V14.01,2013-01-08 20:07:00,
2013-01-08 15:12:00,36.7,23.3,30.12,SSE,161,1.0,3.0,58,0.00,,---,0.00,VWS V14.01,2013-01-08 20:12:00,
2013-01-08 15:17:00,36.6,23.2,30.12,SSE,161,0.0,4.0,58,0.00,,---,0.00,VWS V14.01,2013-01-08 20:17:00,
2013-01-08 15:22:00,36.5,23.1,30.12,SSE,161,1.0,4.0,58,0.00,,---,0.00,VWS V14.01,2013-01-08 20:22:00,
2013-01-08 15:27:00,36.4,23.0,30.13,SSE,161,0.0,4.0,58,0.00,,---,0.00,VWS V14.01,2013-01-08 20:27:00,
2013-01-08 15:30:00,36.4,23.0,30.13,SSE,161,0.0,4.0,58,0.00,,---,0.00,VWS V14.01,2013-01-08 20:30:00,
2013-01-08 15:32:00,36.4,23.5,30.13,SSE,161,0.0,4.0,59,0.00,,---,0.00,VWS V14.01,2013-01-08 20:32:00,
2013-01-08 15:37:00,36.3,23.0,30.13,SSE,161,0.0,0.0,58,0.00,,---,0.00,VWS V14.01,2013-01-08 20:37:00,
2013-01-08 15:42:00,36.1,22.8,30.14,SSE,161,1.0,2.0,58,0.00,,---,0.00,VWS V14.01,2013-01-08 20:42:00,
2013-01-08 15:47:00,36.2,22.9,30.14,SSE,161,0.0,2.0,58,0.00,,---,0.00,VWS V14.01,2013-01-08 20:47:00,
2013-01-08 15:52:00,36.6,23.2,30.14,SSE,161,0.0,2.0,58,0.00,,---,0.00,VWS V14.01,2013-01-08 20:52:00,
2013-01-08 15:57:00,36.7,23.3,30.14,SSE,161,0.0,2.0,58,0.00,,---,0.00,VWS V14.01,2013-01-08 20:57:00,
2013-01-08 16:00:00,35.9,23.0,30.15,SSE,161,0.0,2.0,59,0.00,,---,0.00,VWS V14.01,2013-01-08 21:00:00,
2013-01-08 16:02:00,36.0,22.7,30.15,SSE,161,0.0,2.0,58,0.00,,---,0.00,VWS V14.01,2013-01-08 21:02:00,
2013-01-08 16:07:00,35.8,22.5,30.15,SSE,161,0.0,1.0,58,0.00,,---,0.00,VWS V14.01,2013-01-08 21:07:00,
2013-01-08 16:12:00,35.8,22.9,30.15,SSE,161,0.0,1.0,59,0.00,,---,0.00,VWS V14.01,2013-01-08 21:12:00,
2013-01-08 16:17:00,35.4,22.5,30.15,SSE,161,0.0,1.0,59,0.00,,---,0.00,VWS V14.01,2013-01-08 21:17:00,
2013-01-08 16:22:00,35.1,23.0,30.15,SSE,161,0.0,1.0,61,0.00,,---,0.00,VWS V14.01,2013-01-08 21:22:00,
2013-01-08 16:27:00,34.8,22.7,30.16,SSE,161,0.0,1.0,61,0.00,,---,0.00,VWS V14.01,2013-01-08 21:27:00,
2013-01-08 16:30:00,32.9,22.4,30.16,SSE,161,0.0,2.0,65,0.00,,---,0.00,VWS V14.01,2013-01-08 21:30:00,
2013-01-08 16:32:00,33.5,23.0,30.16,SSE,161,1.0,2.0,65,0.00,,---,0.00,VWS V14.01,2013-01-08 21:32:00,
2013-01-08 16:37:00,32.8,22.3,30.15,SSE,161,0.0,0.0,65,0.00,,---,0.00,VWS V14.01,2013-01-08 21:37:00,
2013-01-08 16:42:00,32.5,21.7,30.15,SSE,161,0.0,0.0,64,0.00,,---,0.00,VWS V14.01,2013-01-08 21:42:00,
2013-01-08 16:47:00,32.3,21.9,30.16,SSE,161,0.0,0.0,65,0.00,,---,0.00,VWS V14.01,2013-01-08 21:47:00,
2013-01-08 16:52:00,31.9,22.2,30.16,SSE,161,0.0,0.0,67,0.00,,---,0.00,VWS V14.01,2013-01-08 21:52:00,
2013-01-08 16:57:00,31.8,22.1,30.16,SSE,161,0.0,0.0,67,0.00,,---,0.00,VWS V14.01,2013-01-08 21:57:00,
2013-01-08 17:00:00,31.4,22.1,30.16,SSE,161,0.0,0.0,68,0.00,,---,0.00,VWS V14.01,2013-01-08 22:00:00,
2013-01-08 17:02:00,31.8,22.5,30.16,SSE,161,0.0,0.0,68,0.00,,---,0.00,VWS V14.01,2013-01-08 22:02:00,
2013-01-08 17:07:00,30.8,22.2,30.16,SSE,161,0.0,2.0,70,0.00,,---,0.00,VWS V14.01,2013-01-08 22:07:00,
2013-01-08 17:12:00,30.2,21.9,30.17,SSE,161,1.0,2.0,71,0.00,,---,0.00,VWS V14.01,2013-01-08 22:12:00,
2013-01-08 17:17:00,29.7,23.1,30.17,SSE,161,0.0,2.0,76,0.00,,---,0.00,VWS V14.01,2013-01-08 22:17:00,
2013-01-08 17:22:00,29.6,22.4,30.17,SSE,161,0.0,2.0,74,0.00,,---,0.00,VWS V14.01,2013-01-08 22:22:00,
2013-01-08 17:27:00,29.3,22.7,30.17,SSE,161,0.0,2.0,76,0.00,,---,0.00,VWS V14.01,2013-01-08 22:27:00,
2013-01-08 17:30:00,29.6,24.8,30.17,SSE,161,0.0,2.0,82,0.00,,---,0.00,VWS V14.01,2013-01-08 22:30:00,
2013-01-08 17:32:00,29.5,25.0,30.17,SSE,161,0.0,2.0,83,0.00,,---,0.00,VWS V14.01,2013-01-08 22:32:00,
2013-01-08 17:37:00,29.5,24.1,30.17,SSE,161,0.0,0.0,80,0.00,,---,0.00,VWS V14.01,2013-01-08 22:37:00,
2013-01-08 17:42:00,29.1,23.1,30.17,SSE,161,0.0,2.0,78,0.00,,---,0.00,VWS V14.01,2013-01-08 22:42:00,
2013-01-08 17:47:00,28.7,22.4,30.18,SSE,161,0.0,2.0,77,0.00,,---,0.00,VWS V14.01,2013-01-08 22:47:00,
2013-01-08 17:52:00,28.9,23.5,30.18,SSE,161,0.0,2.0,80,0.00,,---,0.00,VWS V14.01,2013-01-08 22:52:00,
2013-01-08 17:57:00,29.1,23.7,30.18,SSE,161,0.0,2.0,80,0.00,,---,0.00,VWS V14.01,2013-01-08 22:57:00,
2013-01-08 18:00:00,28.6,22.6,30.19,SSW,197,1.0,3.0,78,0.00,,---,0.00,VWS V14.01,2013-01-08 23:00:00,
2013-01-08 18:02:00,29.0,22.7,30.18,SSE,161,1.0,2.0,77,0.00,,---,0.00,VWS V14.01,2013-01-08 23:02:00,
2013-01-08 18:07:00,28.4,23.0,30.19,SSW,197,0.0,2.0,80,0.00,,---,0.00,VWS V14.01,2013-01-08 23:07:00,
2013-01-08 18:12:00,28.3,22.6,30.19,SSW,197,0.0,2.0,79,0.00,,---,0.00,VWS V14.01,2013-01-08 23:12:00,
2013-01-08 18:17:00,28.4,24.2,30.19,SSW,197,0.0,2.0,84,0.00,,---,0.00,VWS V14.01,2013-01-08 23:17:00,
2013-01-08 18:22:00,27.7,22.4,30.19,SSW,206,2.0,3.0,80,0.00,,---,0.00,VWS V14.01,2013-01-08 23:22:00,
2013-01-08 18:27:00,27.4,22.9,30.19,SSW,206,1.0,3.0,83,0.00,,---,0.00,VWS V14.01,2013-01-08 23:27:00,
2013-01-08 18:30:00,27.0,22.2,30.20,WSW,242,0.0,4.0,82,0.00,,---,0.00,VWS V14.01,2013-01-08 23:30:00,
2013-01-08 18:32:00,26.9,22.1,30.20,WSW,242,3.0,4.0,82,0.00,,---,0.00,VWS V14.01,2013-01-08 23:32:00,
2013-01-08 18:37:00,27.2,22.4,30.20,WSW,242,1.0,2.0,82,0.00,,---,0.00,VWS V14.01,2013-01-08 23:37:00,
2013-01-08 18:42:00,27.7,22.4,30.20,WSW,242,1.0,2.0,80,0.00,,---,0.00,VWS V14.01,2013-01-08 23:42:00,
2013-01-08 18:47:00,28.1,23.6,30.20,WSW,242,0.0,2.0,83,0.00,,---,0.00,VWS V14.01,2013-01-08 23:47:00,
2013-01-08 18:52:00,28.0,22.3,30.20,WSW,242,0.0,2.0,79,0.00,,---,0.00,VWS V14.01,2013-01-08 23:52:00,
2013-01-08 18:57:00,27.7,22.4,30.20,WSW,242,0.0,2.0,80,0.00,,---,0.00,VWS V14.01,2013-01-08 23:57:00,
2013-01-08 19:00:00,28.0,22.6,30.20,WSW,242,0.0,2.0,80,0.00,,---,0.00,VWS V14.01,2013-01-09 00:00:00,
2013-01-08 19:02:00,28.1,23.6,30.20,WSW,242,0.0,2.0,83,0.00,,---,0.00,VWS V14.01,2013-01-09 00:02:00,
2013-01-08 19:07:00,28.0,22.3,30.20,WSW,242,0.0,0.0,79,0.00,,---,0.00,VWS V14.01,2013-01-09 00:07:00,
2013-01-08 19:12:00,28.2,23.1,30.20,WSW,242,0.0,1.0,81,0.00,,---,0.00,VWS V14.01,2013-01-09 00:12:00,
2013-01-08 19:17:00,28.2,22.5,30.20,WSW,242,0.0,1.0,79,0.00,,---,0.00,VWS V14.01,2013-01-09 00:17:00,
2013-01-08 19:22:00,28.0,22.3,30.21,WSW,242,1.0,2.0,79,0.00,,---,0.00,VWS V14.01,2013-01-09 00:22:00,
2013-01-08 19:27:00,27.7,21.8,30.21,WSW,242,2.0,3.0,78,0.00,,---,0.00,VWS V14.01,2013-01-09 00:27:00,
2013-01-08 19:30:00,27.3,22.0,30.21,WSW,242,0.0,3.0,80,0.00,,---,0.00,VWS V14.01,2013-01-09 00:30:00,
2013-01-08 19:32:00,27.5,22.1,30.21,WSW,242,0.0,3.0,80,0.00,,---,0.00,VWS V14.01,2013-01-09 00:32:00,
2013-01-08 19:37:00,27.3,22.0,30.21,WSW,242,0.0,1.0,80,0.00,,---,0.00,VWS V14.01,2013-01-09 00:37:00,
2013-01-08 19:42:00,27.4,22.0,30.21,WSW,242,0.0,1.0,80,0.00,,---,0.00,VWS V14.01,2013-01-09 00:42:00,
2013-01-08 19:47:00,27.4,21.8,30.21,WSW,242,2.0,2.0,79,0.00,,---,0.00,VWS V14.01,2013-01-09 00:47:00,
2013-01-08 19:52:00,27.4,22.0,30.21,WSW,242,0.0,2.0,80,0.00,,---,0.00,VWS V14.01,2013-01-09 00:52:00,
2013-01-08 19:57:00,27.5,22.7,30.21,WSW,242,0.0,2.0,82,0.00,,---,0.00,VWS V14.01,2013-01-09 00:57:00,
2013-01-08 20:00:00,27.5,22.1,30.22,WSW,242,0.0,2.0,80,0.00,,---,0.00,VWS V14.01,2013-01-09 01:00:00,
2013-01-08 20:02:00,27.7,22.6,30.22,WSW,242,0.0,2.0,81,0.00,,---,0.00,VWS V14.01,2013-01-09 01:02:00,
2013-01-08 20:07:00,27.5,22.7,30.21,WSW,242,0.0,0.0,82,0.00,,---,0.00,VWS V14.01,2013-01-09 01:07:00,
2013-01-08 20:12:00,27.4,22.6,30.22,WSW,242,2.0,2.0,82,0.00,,---,0.00,VWS V14.01,2013-01-09 01:12:00,
2013-01-08 20:17:00,26.4,21.4,30.22,WSW,242,1.0,2.0,81,0.00,,---,0.00,VWS V14.01,2013-01-09 01:17:00,
2013-01-08 20:22:00,26.5,22.6,30.22,WSW,242,0.0,2.0,85,0.00,,---,0.00,VWS V14.01,2013-01-09 01:22:00,
2013-01-08 20:27:00,26.6,22.7,30.22,WSW,242,1.0,2.0,85,0.00,,---,0.00,VWS V14.01,2013-01-09 01:27:00,
2013-01-08 20:30:00,26.3,22.4,30.22,WSW,242,1.0,2.0,85,0.00,,---,0.00,VWS V14.01,2013-01-09 01:30:00,
2013-01-08 20:32:00,26.3,22.4,30.22,WSW,242,0.0,2.0,85,0.00,,---,0.00,VWS V14.01,2013-01-09 01:32:00,
2013-01-08 20:37:00,26.2,22.0,30.22,WSW,242,4.0,4.0,84,0.00,,---,0.00,VWS V14.01,2013-01-09 01:37:00,
2013-01-08 20:42:00,25.5,21.1,30.22,WSW,242,2.0,6.0,83,0.00,,---,0.00,VWS V14.01,2013-01-09 01:42:00,
2013-01-08 20:47:00,25.8,21.6,30.23,WSW,242,0.0,6.0,84,0.00,,---,0.00,VWS V14.01,2013-01-09 01:47:00,
2013-01-08 20:52:00,26.1,21.6,30.23,WSW,242,1.0,6.0,83,0.00,,---,0.00,VWS V14.01,2013-01-09 01:52:00,
2013-01-08 20:57:00,26.2,21.2,30.23,SW,233,1.0,6.0,81,0.00,,---,0.00,VWS V14.01,2013-01-09 01:57:00,
2013-01-08 21:00:00,26.9,22.1,30.23,SW,233,0.0,6.0,82,0.00,,---,0.00,VWS V14.01,2013-01-09 02:00:00,
2013-01-08 21:02:00,26.6,21.6,30.23,SW,233,0.0,6.0,81,0.00,,---,0.00,VWS V14.01,2013-01-09 02:02:00,
2013-01-08 21:07:00,27.1,22.9,30.24,SW,233,0.0,0.0,84,0.00,,---,0.00,VWS V14.01,2013-01-09 02:07:00,
2013-01-08 21:12:00,27.1,21.8,30.24,SW,233,0.0,0.0,80,0.00,,---,0.00,VWS V14.01,2013-01-09 02:12:00,
2013-01-08 21:17:00,27.2,22.4,30.24,SW,233,0.0,0.0,82,0.00,,---,0.00,VWS V14.01,2013-01-09 02:17:00,
2013-01-08 21:22:00,26.8,21.5,30.25,SW,233,0.0,3.0,80,0.00,,---,0.00,VWS V14.01,2013-01-09 02:22:00,
2013-01-08 21:26:00,26.4,21.7,30.24,SW,233,0.0,3.0,82,0.00,,---,0.00,VWS V14.01,2013-01-09 02:26:00,
2013-01-08 21:30:00,26.7,22.0,30.24,SW,233,0.0,3.0,82,0.00,,---,0.00,VWS V14.01,2013-01-09 02:30:00,
2013-01-08 21:32:00,26.7,22.5,30.24,SW,233,0.0,3.0,84,0.00,,---,0.00,VWS V14.01,2013-01-09 02:32:00,
2013-01-08 21:37:00,26.7,22.2,30.25,SW,233,0.0,0.0,83,0.00,,---,0.00,VWS V14.01,2013-01-09 02:37:00,
2013-01-08 21:42:00,26.7,21.1,30.25,SW,233,1.0,2.0,79,0.00,,---,0.00,VWS V14.01,2013-01-09 02:42:00,
2013-01-08 21:46:00,26.9,21.3,30.24,SW,233,1.0,2.0,79,0.00,,---,0.00,VWS V14.01,2013-01-09 02:46:00,
2013-01-08 21:51:00,26.2,20.6,30.25,SW,233,1.0,4.0,79,0.00,,---,0.00,VWS V14.01,2013-01-09 02:51:00,
2013-01-08 21:56:00,26.1,21.4,30.25,SW,233,0.0,4.0,82,0.00,,---,0.00,VWS V14.01,2013-01-09 02:56:00,
2013-01-08 22:00:00,25.0,19.4,30.25,SW,233,0.0,4.0,79,0.00,,---,0.00,VWS V14.01,2013-01-09 03:00:00,
2013-01-08 22:01:00,25.7,20.1,30.25,SW,233,2.0,4.0,79,0.00,,---,0.00,VWS V14.01,2013-01-09 03:01:00,
2013-01-08 22:06:00,24.7,19.7,30.25,SW,233,0.0,1.0,81,0.00,,---,0.00,VWS V14.01,2013-01-09 03:06:00,
2013-01-08 22:11:00,24.6,20.2,30.25,SW,233,0.0,1.0,83,0.00,,---,0.00,VWS V14.01,2013-01-09 03:11:00,
2013-01-08 22:16:00,24.4,19.7,30.25,SW,233,0.0,1.0,82,0.00,,---,0.00,VWS V14.01,2013-01-09 03:16:00,
2013-01-08 22:21:00,24.7,21.1,30.25,SW,233,1.0,1.0,86,0.00,,---,0.00,VWS V14.01,2013-01-09 03:21:00,
2013-01-08 22:26:00,24.8,20.4,30.26,SW,233,2.0,2.0,83,0.00,,---,0.00,VWS V14.01,2013-01-09 03:26:00,
2013-01-08 22:30:00,24.3,20.5,30.25,SW,233,2.0,3.0,85,0.00,,---,0.00,VWS V14.01,2013-01-09 03:30:00,
2013-01-08 22:31:00,24.2,19.8,30.25,SW,233,3.0,3.0,83,0.00,,---,0.00,VWS V14.01,2013-01-09 03:31:00,
2013-01-08 22:36:00,24.4,20.3,30.25,SW,233,0.0,2.0,84,0.00,,---,0.00,VWS V14.01,2013-01-09 03:36:00,
2013-01-08 22:41:00,24.2,19.8,30.25,SW,233,0.0,2.0,83,0.00,,---,0.00,VWS V14.01,2013-01-09 03:41:00,
2013-01-08 22:46:00,24.3,20.2,30.25,SW,233,1.0,3.0,84,0.00,,---,0.00,VWS V14.01,2013-01-09 03:46:00,
2013-01-08 22:51:00,23.7,19.0,30.25,SW,233,0.0,3.0,82,0.00,,---,0.00,VWS V14.01,2013-01-09 03:51:00,
2013-01-08 22:56:00,24.1,20.5,30.25,SW,233,1.0,3.0,86,0.00,,---,0.00,VWS V14.01,2013-01-09 03:56:00,
2013-01-08 23:00:00,24.7,20.6,30.25,SW,233,1.0,3.0,84,0.00,,---,0.00,VWS V14.01,2013-01-09 04:00:00,
2013-01-08 23:01:00,24.4,20.5,30.25,SW,233,0.0,3.0,85,0.00,,---,0.00,VWS V14.01,2013-01-09 04:01:00,
2013-01-08 23:06:00,24.9,20.8,30.25,SW,233,0.0,2.0,84,0.00,,---,0.00,VWS V14.01,2013-01-09 04:06:00,
2013-01-08 23:11:00,25.3,20.9,30.25,SW,233,1.0,2.0,83,0.00,,---,0.00,VWS V14.01,2013-01-09 04:11:00,
2013-01-08 23:16:00,25.6,20.9,30.25,SW,233,1.0,2.0,82,0.00,,---,0.00,VWS V14.01,2013-01-09 04:16:00,
2013-01-08 23:21:00,25.0,20.3,30.25,SW,233,2.0,3.0,82,0.00,,---,0.00,VWS V14.01,2013-01-09 04:21:00,
2013-01-08 23:26:00,25.3,20.9,30.25,SW,233,1.0,3.0,83,0.00,,---,0.00,VWS V14.01,2013-01-09 04:26:00,
2013-01-08 23:30:00,26.6,21.6,30.25,SW,233,3.0,5.0,81,0.00,,---,0.00,VWS V14.01,2013-01-09 04:30:00,
2013-01-08 23:31:00,26.2,21.5,30.25,SW,233,1.0,5.0,82,0.00,,---,0.00,VWS V14.01,2013-01-09 04:31:00,
2013-01-08 23:36:00,26.8,21.8,30.25,SW,233,1.0,3.0,81,0.00,,---,0.00,VWS V14.01,2013-01-09 04:36:00,
2013-01-08 23:41:00,27.2,21.9,30.25,SW,228,2.0,5.0,80,0.00,,---,0.00,VWS V14.01,2013-01-09 04:41:00,
2013-01-08 23:46:00,27.5,21.9,30.25,SW,228,2.0,5.0,79,0.00,,---,0.00,VWS V14.01,2013-01-09 04:46:00,
2013-01-08 23:51:00,27.6,22.0,30.25,SW,228,1.0,5.0,79,0.00,,---,0.00,VWS V14.01,2013-01-09 04:51:00,
2013-01-08 23:56:00,27.7,21.8,30.25,SW,228,1.0,5.0,78,0.00,,---,0.00,VWS V14.01,2013-01-09 04:56:00,